EW9202 Weather Reports


Display with metric or nautical units.
time (UTC)temp
F
wind
direction
speed
MPH
gust
MPH
rain 1hr
in
rain 24hr
in
rain mn
in
humidity
%
barometer
mb
20260506044502 53 200 0.0 4.0 0.00 0.20 0.04 96 1005.1
20260506043057 53 227 0.0 3.0 0.00 0.20 0.04 96 1004.8
20260506041547 53 219 1.0 4.0 0.00 0.20 0.04 96 1004.9
20260506040054 53 227 1.0 10.0 0.00 0.20 0.04 96 1004.8
20260506034616 53 218 2.0 5.0 0.00 0.20 0.04 96 1004.6
20260506033001 53 209 1.0 6.0 0.00 0.20 0.04 95 1004.6
20260506031519 53 232 1.0 6.0 0.00 0.20 0.04 95 1004.4
20260506030032 54 196 0.0 5.0 0.00 0.20 0.04 95 1004.5
20260506024616 54 233 2.0 6.0 0.00 0.20 0.04 95 1004.5
20260506023101 54 219 4.0 11.0 0.00 0.20 0.04 95 1004.7
20260506021538 55 209 2.0 6.0 0.00 0.20 0.04 95 1004.8
20260506020028 55 244 2.0 7.0 0.00 0.20 0.04 95 1004.6
20260506014520 55 219 1.0 7.0 0.00 0.20 0.04 95 1004.5
20260506013007 56 207 2.0 7.0 0.00 0.20 0.04 95 1004.4
20260506011526 56 248 1.0 5.0 0.00 0.20 0.04 95 1004.2
20260506010040 56 237 1.0 4.0 0.00 0.20 0.04 95 1004.2
20260506004533 56 241 1.0 5.0 0.00 0.20 0.04 95 1004.3
20260506003010 56 244 0.0 4.0 0.00 0.20 0.04 95 1004.3
20260506001517 56 245 3.0 5.0 0.00 0.20 0.04 95 1004.4
20260506000014 57 254 0.0 4.0 0.00 0.20 0.04 95 1004.1
20260505234515 57 235 1.0 5.0 0.00 0.23 0.04 95 1004.3
20260505233102 57 263 1.0 6.0 0.01 0.23 0.04 94 1004.4
20260505231506 57 244 1.0 4.0 0.02 0.23 0.04 94 1004.6
20260505230055 57 215 1.0 3.0 0.04 0.23 0.04 94 1004.8
20260505224552 57 215 0.0 3.0 0.06 0.28 0.04 93 1004.7
20260505223054 57 284 0.0 3.0 0.07 0.27 0.03 93 1004.7
20260505221528 57 279 0.0 3.0 0.07 0.25 0.02 92 1004.6
20260505220054 57 285 3.0 11.0 0.08 0.24 0.00 91 1004.6
20260505214518 58 292 4.0 15.0 0.09 0.21 0.21 91 1004.8
20260505213106 59 267 4.0 14.0 0.11 0.20 0.20 90 1005.0
20260505211510 59 300 6.0 15.0 0.11 0.18 0.18 89 1004.7
20260505210024 60 304 4.0 12.0 0.09 0.16 0.16 85 1004.4
20260505204517 62 238 4.0 9.0 0.06 0.13 0.13 80 1004.1
20260505203004 64 227 2.0 9.0 0.02 0.09 0.09 73 1003.4
20260505201518 65 242 1.0 5.0 0.00 0.07 0.07 65 1002.8
20260505200035 65 200 1.0 10.0 0.00 0.07 0.07 65 1002.7
20260505194537 65 259 2.0 4.0 0.00 0.07 0.07 65 1002.2
20260505193036 65 22 1.0 6.0 0.00 0.07 0.07 64 1001.8
20260505191610 66 77 3.0 8.0 0.00 0.07 0.07 63 1001.8
20260505190014 66 19 3.0 8.0 0.00 0.07 0.07 62 1002.0
20260505184506 66 107 4.0 10.0 0.00 0.07 0.07 60 1002.0
20260505183038 67 350 3.0 11.0 0.00 0.07 0.07 60 1001.9
20260505181505 68 74 3.0 10.0 0.00 0.07 0.07 56 1001.9
20260505180042 68 67 2.0 12.0 0.00 0.07 0.07 55 1002.0
20260505174534 68 92 7.0 13.0 0.00 0.07 0.07 55 1002.3
20260505173051 68 128 7.0 18.0 0.00 0.07 0.07 57 1002.4
20260505171602 69 119 4.0 15.0 0.00 0.07 0.07 57 1002.6
20260505170006 70 127 5.0 17.0 0.00 0.07 0.07 54 1002.7
20260505164544 71 115 6.0 23.0 0.00 0.07 0.07 51 1002.8
20260505163053 73 132 6.0 18.0 0.00 0.07 0.07 48 1002.8
20260505161535 76 120 2.0 7.0 0.00 0.07 0.07 44 1002.5
20260505160108 76 117 3.0 9.0 0.00 0.07 0.07 43 1002.4
20260505153116 77 99 4.0 8.0 0.00 0.07 0.07 40 1002.6
20260505151604 76 5 1.0 8.0 0.00 0.07 0.07 42 1002.9
20260505150109 75 38 0.0 6.0 0.00 0.07 0.07 42 1002.9
20260505124511 75 19 3.0 12.0 0.00 0.07 0.07 45 1004.2
20260505123003 75 36 3.0 9.0 0.00 0.07 0.07 45 1004.3
20260505121600 75 78 1.0 8.0 0.00 0.07 0.07 45 1004.6
20260505120024 74 51 1.0 8.0 0.00 0.07 0.07 44 1004.8
20260505114602 74 320 3.0 11.0 0.00 0.07 0.07 45 1004.9
20260505113034 74 315 1.0 8.0 0.00 0.07 0.07 46 1005.0
20260505111552 73 282 2.0 8.0 0.00 0.07 0.07 47 1005.1
20260505101517 72 360 1.0 8.0 0.00 0.07 0.07 48 1005.6
20260505100009 72 291 3.0 8.0 0.00 0.07 0.07 51 1005.7
20260505094607 71 149 1.0 9.0 0.00 0.07 0.07 54 1005.7
20260505093023 71 308 2.0 8.0 0.00 0.07 0.07 54 1005.9
20260505091550 70 304 3.0 8.0 0.00 0.07 0.07 55 1006.0
20260505090105 69 313 5.0 9.0 0.00 0.07 0.07 55 1006.2
20260505084535 69 305 2.0 9.0 0.00 0.07 0.07 58 1006.3
20260505083047 68 342 2.0 6.0 0.00 0.07 0.07 60 1006.4
20260505081601 69 360 3.0 9.0 0.00 0.07 0.07 60 1006.3
20260505080047 69 296 5.0 9.0 0.00 0.07 0.07 60 1006.3
20260505074504 70 350 1.0 5.0 0.00 0.07 0.07 60 1006.4
20260505073023 68 16 1.0 5.0 0.00 0.07 0.07 64 1006.6
20260505071537 68 76 3.0 8.0 0.00 0.07 0.07 66 1006.6
20260505070052 66 335 1.0 4.0 0.00 0.07 0.07 70 1006.8
20260505064519 64 350 2.0 4.0 0.00 0.07 0.07 77 1006.9
20260505063039 62 216 0.0 2.0 0.00 0.07 0.07 85 1007.1
20260505061616 60 214 0.0 2.0 0.00 0.07 0.07 93 1007.0
20260505060018 58 215 2.0 5.0 0.00 0.07 0.07 93 1007.3